Hourly Data Report for March 11, 2005

TORONTO CITY
ONTARIO

43°40'00.000" N
79°24'00.000" W
112.50 m
6158355
71508
XTO

Download Data

Hourly Data (March 2005)
Hourly Data Report for March 11, 2005
TIME
LST
Temp Definition
°C
Dew Point Definition
°C
Rel Hum Definition
%
Precip. Amount Definition
mm

Wind Dir Definition
10's deg

Wind Spd Definition
km/h
Visibility Definition
km
Stn Press Definition
kPa
Hmdx Definition


Wind Chill Definition


Weather Definition


00:00 -3.8 -5.2 90   LegendMM LegendMM   98.91     LegendNANA
01:00 -3.4 -5.6 85   LegendMM LegendMM   98.82     LegendNANA
02:00 -3.5 -5.2 88   LegendMM LegendMM   98.75     LegendNANA
03:00 -3.4 -5.1 88   LegendMM LegendMM   98.66     LegendNANA
04:00 -3.4 -5.4 86   LegendMM LegendMM   98.55     LegendNANA
05:00 -3.4 -5.2 87   LegendMM LegendMM   98.53     LegendNANA
06:00 -3.3 -4.5 91   LegendMM LegendMM   98.50     LegendNANA
07:00 -3.2 -4.5 91   LegendMM LegendMM   98.45     LegendNANA
08:00 -3.0 -4.4 90   LegendMM LegendMM   98.43     LegendNANA
09:00 -2.4 -4.8 84   LegendMM LegendMM   98.38     LegendNANA
10:00 -2.2 -4.4 85   LegendMM LegendMM   98.34     LegendNANA
11:00 -2.0 -4.0 86   LegendMM LegendMM   98.30     LegendNANA
12:00 -1.5 -3.9 84   LegendMM LegendMM   98.29     LegendNANA
13:00 -0.9 -3.9 80   LegendMM LegendMM   98.25     LegendNANA
14:00 -0.1 -4.8 71   LegendMM LegendMM   98.21     LegendNANA
15:00 -1.3 -3.9 82   LegendMM LegendMM   98.20     LegendNANA
16:00 -0.9 -3.1 85   LegendMM LegendMM   98.25     LegendNANA
17:00 -1.0 -2.9 87   LegendMM LegendMM   98.26     LegendNANA
18:00 -1.1 -2.7 89   LegendMM LegendMM   98.31     LegendNANA
19:00 -1.2 -4.0 81   LegendMM LegendMM   98.33     LegendNANA
20:00 -1.4 -6.8 67   LegendMM LegendMM   98.38     LegendNANA
21:00 -2.4 -7.3 69   LegendMM LegendMM   98.42     LegendNANA
22:00 -3.4 -8.0 70   LegendMM LegendMM   98.42     LegendNANA
23:00 -3.9 -8.2 72   LegendMM LegendMM   98.37     LegendNANA

Notes on Data Quality.

Legend

  • E = Estimated
  • M = Missing
  • NA = Not Available*
  • [empty] = Indicates an unobserved value
Date modified: